 day,  time,  air_temp(C),  RH(%),  ground_temp10cm(C),  ground_temp20cm(C),  ground_temp40cm(C),  precipitation(mm/h),  Solar_Radiation(MJ/m2h),  lack, 
 05/06/01, 01:00,   8.8,  75,  12.9,  13.1,  11.9,   0.0,  0.00, 
 05/06/01, 02:00,   8.0,  81,  12.5,  13.1,  11.9,   0.0,  0.00, 
 05/06/01, 03:00,   8.1,  88,  12.2,  13.0,  11.9,   0.0,  0.00, 
 05/06/01, 04:00,   8.7,  75,  12.0,  12.9,  12.0,   0.0,  0.00, 
 05/06/01, 05:00,   8.1,  79,  11.8,  12.8,  11.9,   0.0,  0.00, 
 05/06/01, 06:00,   9.6,  80,  11.5,  12.7,  12.0,   0.0,  0.20, 
 05/06/01, 07:00,  13.8,  65,  11.4,  12.6,  12.0,   0.0,  1.21, 
 05/06/01, 08:00,  14.4,  66,  11.7,  12.5,  12.0,   0.0,  1.46, 
 05/06/01, 09:00,  15.9,  63,  12.1,  12.4,  11.9,   0.0,  2.50, 
 05/06/01, 10:00,  18.9,  56,  12.7,  12.4,  11.9,   0.0,  3.04, 
 05/06/01, 11:00,  19.0,  48,  13.8,  12.4,  12.0,   0.0,  3.18, 
 05/06/01, 12:00,  20.4,  31,  14.8,  12.4,  12.0,   0.0,  3.51, 
 05/06/01, 13:00,  22.4,  27,  16.0,  12.6,  11.9,   0.0,  3.56, 
 05/06/01, 14:00,  21.4,  26,  16.4,  12.8,  12.0,   0.0,  2.73, 
 05/06/01, 15:00,  20.3,  32,  16.5,  13.2,  12.0,   0.0,  1.99, 
 05/06/01, 16:00,  19.8,  37,  16.5,  13.4,  12.0,   0.0,  1.35, 
 05/06/01, 17:00,  18.7,  46,  16.5,  13.6,  12.0,   0.0,  0.99, 
 05/06/01, 18:00,  16.5,  48,  16.5,  13.8,  12.0,   0.0,  0.41, 
 05/06/01, 19:00,  14.3,  51,  16.3,  13.9,  12.0,   0.0,  0.09, 
 05/06/01, 20:00,  13.5,  52,  16.0,  14.1,  12.0,   0.0,  0.00, 
 05/06/01, 21:00,  10.7,  68,  15.6,  14.2,  12.0,   0.0,  0.00, 
 05/06/01, 22:00,  11.3,  62,  15.2,  14.1,  12.0,   0.0,  0.00, 
 05/06/01, 23:00,  10.1,  69,  14.9,  14.2,  12.0,   0.0,  0.00, 
 05/06/02, 00:00,  10.6,  59,  14.5,  14.1,  12.1,   0.0,  0.00, 
 05/06/02, 01:00,   9.4,  63,  14.2,  14.0,  12.1,   0.0,  0.00, 
 05/06/02, 02:00,  12.5,  48,  13.9,  14.0,  12.1,   0.0,  0.00, 
 05/06/02, 03:00,  11.0,  52,  13.6,  13.9,  12.0,   0.0,  0.00, 
 05/06/02, 04:00,  10.6,  52,  13.3,  13.8,  12.0,   0.0,  0.00, 
 05/06/02, 05:00,  11.9,  51,  13.1,  13.7,  12.1,   0.0,  0.00, 
 05/06/02, 06:00,  12.2,  46,  13.0,  13.6,  12.1,   0.0,  0.07, 
 05/06/02, 07:00,  12.3,  54,  12.9,  13.5,  12.2,   0.0,  0.21, 
 05/06/02, 08:00,  12.1,  62,  12.7,  13.5,  12.2,   0.0,  0.41, 
 05/06/02, 09:00,  12.5,  67,  12.9,  13.4,  12.1,   0.0,  0.67, 
 05/06/02, 10:00,  13.1,  75,  12.9,  13.3,  12.3,   0.0,  0.98, 
 05/06/02, 11:00,  13.6,  74,  13.1,  13.2,  12.2,   0.0,  0.84, 
 05/06/02, 12:00,  14.0,  69,  13.3,  13.2,  12.2,   0.0,  0.75, 
 05/06/02, 13:00,  13.1,  77,  13.4,  13.1,  12.2,   0.0,  0.78, 
 05/06/02, 14:00,  13.7,  78,  13.5,  13.2,  12.3,   0.0,  0.61, 
 05/06/02, 15:00,  12.5,  89,  13.6,  13.2,  12.2,   0.0,  0.71, 
 05/06/02, 16:00,  12.4,  97,  13.7,  13.2,  12.3,   0.0,  0.41, 
 05/06/02, 17:00,  12.1,  99,  13.7,  13.2,  12.0,   0.0,  0.38, 
 05/06/02, 18:00,  12.4,  94,  13.7,  13.2,  12.2,   0.0,  0.27, 
 05/06/02, 19:00,  11.0,  99,  13.7,  13.2,  12.2,   0.0,  0.08, 
 05/06/02, 20:00,  10.8,  99,  13.6,  13.2,  12.1,   0.0,  0.00, 
 05/06/02, 21:00,  10.8,  99,  13.5,  13.3,  12.2,   0.0,  0.00, 
 05/06/02, 22:00,  11.3,  99,  13.4,  13.3,  12.0,   0.0,  0.00, 
 05/06/02, 23:00,  11.4,  99,  13.3,  13.2,  12.2,   0.0,  0.00, 
 05/06/03, 00:00,  11.0,  99,  13.2,  13.2,  12.0,   0.0,  0.00, 
 05/06/03, 01:00,  11.1,  99,  13.0,  13.2,  12.2,   0.0,  0.00, 
 05/06/03, 02:00,  10.5,  99,  12.9,  13.2,  12.2,   0.0,  0.00, 
 05/06/03, 03:00,  11.0,  99,  12.6,  13.1,  12.1,   0.0,  0.00, 
 05/06/03, 04:00,  11.0,  99,  12.4,  13.1,  12.0,   0.0,  0.00, 
 05/06/03, 05:00,  10.4,  99,  12.3,  12.9,  12.1,   0.0,  0.00, 
 05/06/03, 06:00,  11.2,  99,  12.2,  12.8,  12.1,   0.0,  0.08, 
 05/06/03, 07:00,  13.1,  98,  12.2,  12.8,  12.2,   0.0,  0.39, 
 05/06/03, 08:00,  15.4,  90,  12.3,  12.7,  12.2,   0.0,  0.98, 
 05/06/03, 09:00,  17.1,  86,  12.6,  12.7,  12.2,   0.0,  2.39, 
 05/06/03, 10:00,  17.7,  76,  13.3,  12.6,  12.2,   0.0,  2.97, 
 05/06/03, 11:00,  20.5,  71,  14.3,  12.7,  12.1,   0.0,  3.28, 
 05/06/03, 12:00,  21.0,  70,  15.5,  12.7,  12.0,   0.0,  3.57, 
 05/06/03, 13:00,  22.9,  61,  16.6,  13.0,  12.1,   0.0,  3.24, 
 05/06/03, 14:00,  23.1,  56,  17.2,  13.3,  12.2,   0.0,  3.28, 
 05/06/03, 15:00,  21.6,  59,  17.4,  13.6,  12.2,   0.0,  1.87, 
 05/06/03, 16:00,  19.2,  75,  17.5,  13.7,  12.2,   0.0,  1.62, 
 05/06/03, 17:00,  18.6,  75,  17.6,  14.1,  12.2,   0.0,  0.76, 
 05/06/03, 18:00,  16.6,  84,  17.5,  14.3,  12.1,   0.0,  0.40, 
 05/06/03, 19:00,  15.3,  97,  17.3,  14.5,  12.1,   0.0,  0.04, 
 05/06/03, 20:00,  15.0,  95,  17.0,  14.5,  12.2,   0.0,  0.00, 
 05/06/03, 21:00,  14.5,  99,  16.7,  14.7,  12.2,   0.0,  0.00, 
 05/06/03, 22:00,  13.8,  99,  16.4,  14.8,  12.2,   0.0,  0.00, 
 05/06/03, 23:00,  13.3,  99,  16.1,  14.7,  12.3,   0.0,  0.00, 
 05/06/04, 00:00,  13.4,  99,  15.9,  14.8,  12.3,   0.0,  0.00, 
 05/06/04, 01:00,  12.7,  99,  15.7,  14.7,  12.3,   0.0,  0.00, 
 05/06/04, 02:00,  10.6,  99,  15.5,  14.7,  12.4,   0.0,  0.00, 
 05/06/04, 03:00,   9.9,  99,  15.3,  14.7,  12.4,   0.0,  0.00, 
 05/06/04, 04:00,   9.8,  99,  15.1,  14.6,  12.4,   0.0,  0.00, 
 05/06/04, 05:00,   9.9,  99,  14.8,  14.6,  12.5,   0.0,  0.00, 
 05/06/04, 06:00,  12.8,  92,  14.5,  14.5,  12.5,   0.0,  0.28, 
 05/06/04, 07:00,  14.4,  87,  14.4,  14.4,  12.4,   0.0,  0.76, 
 05/06/04, 08:00,  15.1,  82,  14.5,  14.3,  12.5,   0.0,  1.27, 
 05/06/04, 09:00,  15.9,  70,  14.8,  14.4,  12.6,   0.0,  1.97, 
 05/06/04, 10:00,  18.2,  63,  15.2,  14.2,  12.5,   0.0,  2.78, 
 05/06/04, 11:00,  18.6,  58,  16.0,  14.2,  12.5,   0.0,  2.64, 
 05/06/04, 12:00,  19.0,  59,  16.7,  14.3,  12.5,   0.5,  2.00, 
 05/06/04, 13:00,  15.4,  77,  17.1,  14.5,  12.6,   0.0,  0.91, 
 05/06/04, 14:00,  12.3,  99,  16.8,  14.5,  12.6,   6.0,  0.72, 
 05/06/04, 15:00,  13.8,  87,  16.5,  14.7,  12.7,   0.5,  2.08, 
 05/06/04, 16:00,  14.4,  81,  16.5,  14.7,  12.7,   0.0,  1.83, 
 05/06/04, 17:00,  13.8,  86,  16.5,  14.9,  12.7,   0.0,  0.96, 
 05/06/04, 18:00,  13.9,  84,  16.5,  14.9,  12.7,   0.0,  0.56, 
 05/06/04, 19:00,  13.1,  88,  16.4,  15.0,  12.7,   0.0,  0.07, 
 05/06/04, 20:00,  11.7,  96,  16.1,  15.0,  12.7,   0.0,  0.00, 
 05/06/04, 21:00,  11.6,  95,  15.9,  14.9,  12.6,   0.0,  0.00, 
 05/06/04, 22:00,   9.8,  99,  15.6,  14.9,  12.8,   2.0,  0.00, 
 05/06/04, 23:00,   9.3,  99,  15.3,  14.9,  12.7,   0.5,  0.00, 
 05/06/05, 00:00,   9.5,  99,  15.0,  14.8,  12.7,   0.0,  0.00, 
 05/06/05, 01:00,   8.9,  99,  14.8,  14.7,  12.7,   0.0,  0.00, 
 05/06/05, 02:00,   8.8,  99,  14.5,  14.7,  12.8,   0.0,  0.00, 
 05/06/05, 03:00,   8.9,  99,  14.2,  14.6,  12.7,   0.0,  0.00, 
 05/06/05, 04:00,   9.2,  99,  14.0,  14.5,  12.7,   0.0,  0.00, 
 05/06/05, 05:00,   9.5,  99,  13.8,  14.4,  12.8,   0.0,  0.00, 
 05/06/05, 06:00,   9.1,  99,  13.6,  14.3,  12.9,   0.0,  0.16, 
 05/06/05, 07:00,  10.1,  99,  13.5,  14.2,  12.9,   0.0,  0.79, 
 05/06/05, 08:00,  10.5,  99,  13.5,  14.1,  12.9,   0.0,  0.83, 
 05/06/05, 09:00,  11.4,  99,  13.7,  14.0,  12.9,   0.0,  0.73, 
 05/06/05, 10:00,  13.5,  88,  13.8,  13.9,  12.9,   0.0,  2.16, 
 05/06/05, 11:00,  14.2,  87,  14.3,  13.8,  12.8,   0.5,  2.55, 
 05/06/05, 12:00,  16.2,  77,  15.1,  13.8,  12.8,   0.0,  3.61, 
 05/06/05, 13:00,  17.1,  71,  16.1,  14.0,  12.7,   0.0,  4.01, 
 05/06/05, 14:00,  16.3,  74,  16.7,  14.1,  12.8,   0.0,  3.78, 
 05/06/05, 15:00,  16.1,  77,  16.8,  14.2,  12.7,   0.0,  3.08, 
 05/06/05, 16:00,  14.6,  84,  16.8,  14.4,  12.7,   0.0,  0.99, 
 05/06/05, 17:00,  14.9,  85,  16.8,  14.5,  12.8,   0.0,  1.08, 
 05/06/05, 18:00,  13.6,  87,  16.7,  14.6,  12.8,   0.0,  0.79, 
 05/06/05, 19:00,  11.8,  96,  16.6,  14.8,  12.8,   0.0,  0.32, 
 05/06/05, 20:00,  11.0,  99,  16.4,  14.8,  12.8,   0.0,  0.00, 
 05/06/05, 21:00,   9.9,  99,  16.1,  14.9,  12.8,   0.0,  0.00, 
 05/06/05, 22:00,  10.4,  99,  15.8,  14.9,  12.8,   0.0,  0.00, 
 05/06/05, 23:00,   9.1,  99,  15.5,  14.9,  13.0,   0.0,  0.00, 
 05/06/06, 00:00,   9.5,  99,  15.2,  14.9,  12.9,   0.0,  0.00, 
 05/06/06, 01:00,   9.4,  99,  14.9,  14.8,  12.9,   0.0,  0.00, 
 05/06/06, 02:00,   9.7,  98,  14.5,  14.7,  12.9,   0.0,  0.00, 
 05/06/06, 03:00,   8.9,  99,  14.3,  14.7,  13.0,   0.0,  0.00, 
 05/06/06, 04:00,   8.4,  99,  14.1,  14.6,  12.9,   0.0,  0.00, 
 05/06/06, 05:00,   8.3,  99,  13.8,  14.5,  12.9,   0.0,  0.00, 
 05/06/06, 06:00,   9.9,  99,  13.6,  14.4,  13.1,   0.0,  0.23, 
 05/06/06, 07:00,  13.7,  90,  13.4,  14.3,  13.0,   0.0,  1.12, 
 05/06/06, 08:00,  14.7,  82,  13.6,  14.1,  13.1,   0.0,  1.85, 
 05/06/06, 09:00,  16.0,  78,  14.0,  14.0,  13.1,   0.0,  2.51, 
 05/06/06, 10:00,  16.9,  73,  14.6,  14.0,  13.1,   0.0,  3.10, 
 05/06/06, 11:00,  18.8,  67,  15.5,  14.0,  13.1,   0.0,  3.48, 
 05/06/06, 12:00,  20.6,  57,  16.7,  14.1,  13.2,   0.0,  3.63, 
 05/06/06, 13:00,  21.7,  52,  17.7,  14.2,  13.1,   0.0,  3.61, 
 05/06/06, 14:00,  22.6,  49,  18.1,  14.5,  13.1,   0.0,  3.36, 
 05/06/06, 15:00,  23.1,  45,  18.2,  14.7,  13.0,   0.0,  2.96, 
 05/06/06, 16:00,  21.9,  58,  18.1,  15.1,  13.2,   0.0,  1.95, 
 05/06/06, 17:00,  22.2,  61,  18.2,  15.3,  13.2,   0.0,  1.53, 
 05/06/06, 18:00,  18.9,  73,  18.3,  15.3,  13.2,   0.0,  0.71, 
 05/06/06, 19:00,  16.9,  81,  18.2,  15.6,  13.1,   0.0,  0.12, 
 05/06/06, 20:00,  16.1,  86,  18.0,  15.6,  13.1,   0.0,  0.00, 
 05/06/06, 21:00,  15.2,  93,  17.7,  15.7,  13.1,   0.0,  0.00, 
 05/06/06, 22:00,  14.6,  96,  17.5,  15.7,  13.2,   0.0,  0.00, 
 05/06/06, 23:00,  13.6,  99,  17.2,  15.8,  13.2,   0.0,  0.00, 
 05/06/07, 00:00,  13.4,  99,  17.0,  15.8,  13.1,   0.0,  0.00, 
 05/06/07, 01:00,  13.6,  99,  16.7,  15.8,  13.1,   0.0,  0.00, 
 05/06/07, 02:00,  13.4,  99,  16.6,  15.7,  13.3,   0.0,  0.00, 
 05/06/07, 03:00,  13.1,  99,  16.4,  15.7,  13.3,   0.0,  0.00, 
 05/06/07, 04:00,  12.5,  99,  16.2,  15.7,  13.2,   0.0,  0.00, 
 05/06/07, 05:00,  12.3,  99,  16.1,  15.6,  13.4,   0.0,  0.00, 
 05/06/07, 06:00,  12.6,  99,  15.8,  15.5,  13.4,   0.0,  0.14, 
 05/06/07, 07:00,  14.3,  98,  15.8,  15.6,  13.5,   0.0,  0.67, 
 05/06/07, 08:00,  15.9,  90,  15.9,  15.4,  13.5,   0.0,  1.23, 
 05/06/07, 09:00,  17.6,  83,  16.0,  15.4,  13.6,   0.0,  1.80, 
 05/06/07, 10:00,  17.9,  79,  16.4,  15.3,  13.6,   0.0,  1.98, 
 05/06/07, 11:00,  17.8,  78,  16.8,  15.3,  13.4,   0.0,  1.42, 
 05/06/07, 12:00,  19.4,  70,  17.1,  15.4,  13.5,   0.0,  1.61, 
 05/06/07, 13:00,  18.8,  77,  17.4,  15.4,  13.5,   0.0,  1.48, 
 05/06/07, 14:00,  19.1,  74,  17.7,  15.5,  13.5,   0.0,  1.16, 
 05/06/07, 15:00,  18.6,  77,  17.8,  15.6,  13.6,   0.0,  1.24, 
 05/06/07, 16:00,  19.7,  73,  17.9,  15.7,  13.7,   0.0,  1.66, 
 05/06/07, 17:00,  17.3,  84,  18.1,  15.8,  13.7,   0.0,  0.73, 
 05/06/07, 18:00,  16.0,  89,  18.1,  15.9,  13.5,   0.0,  0.22, 
 05/06/07, 19:00,  15.3,  94,  17.9,  16.1,  13.7,   0.0,  0.00, 
 05/06/07, 20:00,  14.5,  99,  17.7,  16.0,  13.7,   0.0,  0.00, 
 05/06/07, 21:00,  14.3,  99,  17.5,  16.1,  13.7,   0.0,  0.00, 
 05/06/07, 22:00,  13.8,  99,  17.3,  16.1,  13.7,   0.0,  0.00, 
 05/06/07, 23:00,  13.0,  99,  17.1,  16.1,  13.7,   0.0,  0.00, 
 05/06/08, 00:00,  12.4,  99,  16.8,  16.1,  13.7,   0.0,  0.00, 
 05/06/08, 01:00,  12.4,  99,  16.7,  16.0,  13.7,   0.0,  0.00, 
 05/06/08, 02:00,  11.8,  99,  16.5,  16.0,  13.7,   0.0,  0.00, 
 05/06/08, 03:00,  11.7,  99,  16.3,  15.9,  13.8,   0.0,  0.00, 
 05/06/08, 04:00,  11.5,  99,  16.2,  15.9,  13.7,   0.0,  0.00, 
 05/06/08, 05:00,  11.4,  99,  16.0,  15.8,  13.8,   0.0,  0.00, 
 05/06/08, 06:00,  11.6,  99,  15.9,  15.7,  13.8,   0.0,  0.03, 
 05/06/08, 07:00,  11.9,  99,  15.6,  15.7,  13.8,   0.0,  0.37, 
 05/06/08, 08:00,  13.1,  99,  15.6,  15.6,  13.8,   0.0,  0.66, 
 05/06/08, 09:00,  14.0,  99,  15.7,  15.5,  13.9,   0.0,  1.30, 
 05/06/08, 10:00,  16.3,  94,  15.9,  15.5,  13.8,   0.0,  1.90, 
 05/06/08, 11:00,  16.9,  91,  16.4,  15.5,  13.8,   0.0,  1.75, 
 05/06/08, 12:00,  17.2,  88,  16.8,  15.5,  13.9,   0.0,  1.25, 
 05/06/08, 13:00,  17.8,  88,  17.1,  15.5,  13.8,   0.0,  2.16, 
 05/06/08, 14:00,  15.7,  94,  17.5,  15.6,  14.0,   0.0,  1.25, 
 05/06/08, 15:00,  14.7,  96,  17.6,  15.6,  13.8,   0.0,  0.64, 
 05/06/08, 16:00,  15.1,  94,  17.6,  15.7,  13.9,   0.0,  0.79, 
 05/06/08, 17:00,  14.7,  96,  17.6,  15.8,  13.9,   0.0,  0.87, 
 05/06/08, 18:00,  14.1,  98,  17.6,  15.9,  13.9,   0.0,  0.18, 
 05/06/08, 19:00,  13.9,  97,  17.5,  15.9,  13.8,   0.5,  0.01, 
 05/06/08, 20:00,  13.7,  99,  17.3,  16.0,  14.0,   0.0,  0.00, 
 05/06/08, 21:00,  13.1,  99,  16.9,  16.0,  13.9,   0.0,  0.00, 
 05/06/08, 22:00,  12.5,  99,  16.8,  16.0,  13.9,   0.0,  0.00, 
 05/06/08, 23:00,  11.8,  99,  16.6,  16.0,  14.0,   0.0,  0.00, 
 05/06/09, 00:00,  11.3,  99,  16.4,  15.9,  14.0,   0.0,  0.00, 
 05/06/09, 01:00,  11.2,  99,  16.2,  15.9,  14.0,   0.0,  0.00, 
 05/06/09, 02:00,  10.3,  99,  15.9,  15.9,  13.9,   0.0,  0.00, 
 05/06/09, 03:00,  10.2,  99,  15.6,  15.8,  13.9,   0.0,  0.00, 
 05/06/09, 04:00,   9.8,  99,  15.5,  15.7,  14.0,   0.0,  0.00, 
 05/06/09, 05:00,  10.4,  99,  15.2,  15.6,  14.0,   0.0,  0.00, 
 05/06/09, 06:00,  10.8,  99,  14.8,  15.5,  13.9,   0.0,  0.23, 
 05/06/09, 07:00,  14.6,  90,  14.7,  15.4,  13.9,   0.0,  1.06, 
 05/06/09, 08:00,  15.1,  82,  14.9,  15.3,  14.0,   0.0,  1.84, 
 05/06/09, 09:00,  16.7,  78,  15.2,  15.2,  14.1,   0.0,  2.48, 
 05/06/09, 10:00,  19.0,  73,  15.7,  15.2,  14.1,   0.0,  2.98, 
 05/06/09, 11:00,  20.3,  68,  16.8,  15.2,  14.1,   0.0,  3.53, 
 05/06/09, 12:00,  19.8,  72,  17.9,  15.2,  14.0,   0.0,  3.38, 
 05/06/09, 13:00,  21.8,  65,  18.7,  15.4,  14.0,   0.0,  2.40, 
 05/06/09, 14:00,  19.7,  74,  19.0,  15.6,  13.9,   0.0,  1.70, 
 05/06/09, 15:00,  19.3,  77,  19.1,  15.8,  13.9,   0.0,  0.64, 
 05/06/09, 16:00,  20.0,  75,  19.1,  16.1,  14.0,   0.0,  1.44, 
 05/06/09, 17:00,  18.0,  83,  19.1,  16.2,  14.0,   0.0,  0.43, 
 05/06/09, 18:00,  17.3,  85,  18.9,  16.5,  14.0,   0.0,  0.16, 
 05/06/09, 19:00,  15.6,  93,  18.7,  16.6,  14.2,   0.0,  0.26, 
 05/06/09, 20:00,  15.4,  94,  18.5,  16.6,  14.1,   0.0,  0.00, 
 05/06/09, 21:00,  14.9,  96,  18.1,  16.6,  14.1,   0.0,  0.00, 
 05/06/09, 22:00,  13.6,  99,  17.8,  16.7,  14.1,   0.0,  0.00, 
 05/06/09, 23:00,  13.8,  99,  17.6,  16.7,  14.0,   0.0,  0.00, 
 05/06/10, 00:00,  14.4,  99,  17.3,  16.6,  14.0,   0.0,  0.00, 
 05/06/10, 01:00,  13.7,  99,  17.2,  16.6,  14.1,   0.0,  0.00, 
 05/06/10, 02:00,  12.4,  99,  16.9,  16.5,  14.2,   0.0,  0.00, 
 05/06/10, 03:00,  12.6,  99,  16.7,  16.4,  14.2,   0.0,  0.00, 
 05/06/10, 04:00,  11.5,  99,  16.5,  16.4,  14.2,   0.0,  0.00, 
 05/06/10, 05:00,  11.9,  99,  16.2,  16.3,  14.3,   0.0,  0.00, 
 05/06/10, 06:00,  13.0,  99,  16.0,  16.2,  14.3,   0.0,  0.22, 
 05/06/10, 07:00,  14.9,  99,  15.8,  16.1,  14.3,   0.0,  0.96, 
 05/06/10, 08:00,  18.2,  90,  15.9,  16.0,  14.4,   0.0,  1.53, 
 05/06/10, 09:00,  19.1,  81,  16.3,  15.9,  14.2,   0.0,  2.28, 
 05/06/10, 10:00,  20.7,  76,  16.8,  15.9,  14.3,   0.0,  2.85, 
 05/06/10, 11:00,  21.3,  69,  17.7,  15.9,  14.3,   0.0,  3.13, 
 05/06/10, 12:00,  20.5,  76,  18.5,  16.0,  14.3,   0.0,  2.20, 
 05/06/10, 13:00,  20.6,  75,  18.9,  16.1,  14.3,   0.0,  1.07, 
 05/06/10, 14:00,  19.6,  81,  19.1,  16.3,  14.3,   0.0,  0.62, 
 05/06/10, 15:00,  18.7,  88,  19.1,  16.4,  14.2,   0.0,  0.26, 
 05/06/10, 16:00,  16.9,  95,  18.9,  16.6,  14.4,   0.0,  0.24, 
 05/06/10, 17:00,  15.8,  99,  18.8,  16.7,  14.3,   0.0,  0.23, 
 05/06/10, 18:00,  16.0,  99,  18.7,  16.8,  14.4,   0.0,  0.17, 
 05/06/10, 19:00,  15.8,  99,  18.4,  16.9,  14.4,   0.0,  0.02, 
 05/06/10, 20:00,  15.7,  99,  18.3,  16.9,  14.4,   0.0,  0.00, 
 05/06/10, 21:00,  15.7,  99,  18.1,  16.9,  14.4,   0.0,  0.00, 
 05/06/10, 22:00,  15.7,  99,  17.9,  16.9,  14.4,   0.0,  0.00, 
 05/06/10, 23:00,  15.1,  99,  17.7,  16.9,  14.3,   0.0,  0.00, 
 05/06/11, 00:00,  15.2,  99,  17.6,  16.8,  14.5,   0.0,  0.00, 
 05/06/11, 01:00,  14.7,  99,  17.4,  16.8,  14.5,   0.0,  0.00, 
 05/06/11, 02:00,  14.4,  99,  17.2,  16.7,  14.5,   0.0,  0.00, 
 05/06/11, 03:00,  14.7,  99,  17.1,  16.7,  14.4,   0.0,  0.00, 
 05/06/11, 04:00,  14.8,  99,  16.8,  16.6,  14.4,   0.0,  0.00, 
 05/06/11, 05:00,  14.6,  99,  16.8,  16.6,  14.5,   0.0,  0.00, 
 05/06/11, 06:00,  15.7,  99,  16.7,  16.5,  14.5,   0.0,  0.11, 
 05/06/11, 07:00,  14.8,  99,  16.6,  16.4,  14.5,   0.0,  0.11, 
 05/06/11, 08:00,  15.0,  99,  16.6,  16.4,  14.6,   1.0,  0.29, 
 05/06/11, 09:00,  15.2,  99,  16.6,  16.3,  14.6,   2.0,  0.26, 
 05/06/11, 10:00,  15.1,  99,  16.5,  16.3,  14.6,   1.5,  0.32, 
 05/06/11, 11:00,  15.8,  99,  16.6,  16.2,  14.6,   1.0,  0.91, 
 05/06/11, 12:00,  14.5,  99,  16.7,  16.3,  14.6,   0.5,  0.18, 
 05/06/11, 13:00,  14.5,  99,  16.7,  16.3,  14.5,   0.0,  0.21, 
 05/06/11, 14:00,  15.5,  99,  16.7,  16.1,  14.5,   0.5,  0.58, 
 05/06/11, 15:00,  15.8,  99,  16.7,  16.1,  14.6,   0.0,  0.46, 
 05/06/11, 16:00,  15.5,  99,  16.7,  16.1,  14.6,   0.0,  0.30, 
 05/06/11, 17:00,  15.4,  99,  16.7,  16.1,  14.6,   0.5,  0.08, 
 05/06/11, 18:00,  15.5,  99,  16.7,  16.1,  14.6,   0.0,  0.12, 
 05/06/11, 19:00,  15.4,  99,  16.6,  16.1,  14.5,   0.0,  0.00, 
 05/06/11, 20:00,  15.4,  99,  16.6,  16.2,  14.6,   0.0,  0.00, 
 05/06/11, 21:00,  15.0,  99,  16.5,  16.2,  14.5,   0.0,  0.00, 
 05/06/11, 22:00,  15.1,  99,  16.4,  16.1,  14.5,   0.0,  0.00, 
 05/06/11, 23:00,  14.5,  99,  16.3,  16.0,  14.6,   0.0,  0.00, 
 05/06/12, 00:00,  14.1,  99,  16.1,  16.0,  14.5,   0.0,  0.00, 
 05/06/12, 01:00,  14.0,  99,  16.0,  16.1,  14.6,   0.0,  0.00, 
 05/06/12, 02:00,  13.9,  99,  15.9,  15.9,  14.5,   0.5,  0.00, 
 05/06/12, 03:00,  13.1,  99,  15.8,  15.9,  14.5,   0.0,  0.00, 
 05/06/12, 04:00,  13.5,  99,  15.6,  15.8,  14.6,   0.0,  0.00, 
 05/06/12, 05:00,  13.1,  99,  15.5,  15.8,  14.5,   0.0,  0.00, 
 05/06/12, 06:00,  13.0,  99,  15.4,  15.7,  14.6,   0.0,  0.18, 
 05/06/12, 07:00,  14.5,  99,  15.3,  15.6,  14.5,   0.0,  1.07, 
 05/06/12, 08:00,  16.1,  93,  15.5,  15.6,  14.6,   0.0,  1.65, 
 05/06/12, 09:00,  15.7,  99,  15.8,  15.5,  14.5,   0.0,  1.54, 
 05/06/12, 10:00,  18.3,  88,  16.2,  15.6,  14.7,   0.0,  2.28, 
 05/06/12, 11:00,  20.3,  70,  16.9,  15.6,  14.7,   0.0,  3.52, 
 05/06/12, 12:00,  20.5,  60,  18.1,  15.6,  14.6,   0.0,  3.60, 
 05/06/12, 13:00,  22.1,  42,  19.2,  15.7,  14.7,   0.0,  3.15, 
 05/06/12, 14:00,  20.4,  42,  19.7,  15.9,  14.6,   0.0,  2.70, 
 05/06/12, 15:00,  19.9,  42,  19.7,  16.3,  14.7,   0.0,  1.13, 
 05/06/12, 16:00,  19.1,  40,  19.6,  16.5,  14.7,   0.0,  1.00, 
 05/06/12, 17:00,  18.8,  42,  19.5,  16.7,  14.7,   0.0,  1.22, 
 05/06/12, 18:00,  17.5,  45,  19.2,  16.9,  14.7,   0.0,  0.47, 
 05/06/12, 19:00,  15.3,  58,  18.9,  16.9,  14.7,   0.0,  0.14, 
 05/06/12, 20:00,  16.0,  49,  18.5,  16.9,  14.5,   0.0,  0.00, 
 05/06/12, 21:00,  15.5,  52,  18.2,  17.1,  14.7,   0.0,  0.00, 
 05/06/12, 22:00,  13.8,  57,  17.8,  17.0,  14.7,   0.0,  0.00, 
 05/06/12, 23:00,  13.4,  54,  17.4,  16.9,  14.6,   0.0,  0.00, 
 05/06/13, 00:00,  12.7,  54,  17.0,  16.9,  14.6,   0.0,  0.00, 
 05/06/13, 01:00,  10.3,  80,  16.7,  16.8,  14.7,   0.0,  0.00, 
 05/06/13, 02:00,  13.1,  59,  16.4,  16.7,  14.7,   0.0,  0.00, 
 05/06/13, 03:00,  12.7,  63,  16.1,  16.6,  14.7,   0.0,  0.00, 
 05/06/13, 04:00,  13.6,  56,  15.8,  16.5,  14.6,   0.0,  0.00, 
 05/06/13, 05:00,  13.5,  56,  15.5,  16.3,  14.8,   0.0,  0.00, 
 05/06/13, 06:00,  11.0,  90,  15.3,  16.2,  14.8,   0.0,  0.21, 
 05/06/13, 07:00,  13.2,  69,  15.1,  16.1,  14.8,   0.0,  1.13, 
 05/06/13, 08:00,  13.7,  85,  15.2,  16.0,  14.8,   0.0,  1.87, 
 05/06/13, 09:00,  15.7,  82,  15.5,  15.8,  14.8,   0.0,  2.56, 
 05/06/13, 10:00,  17.1,  76,  16.1,  15.8,  14.7,   0.0,  3.13, 
 05/06/13, 11:00,  18.7,  71,  17.0,  15.7,  14.8,   0.0,  3.46, 
 05/06/13, 12:00,  19.9,  67,  18.0,  15.8,  14.8,   0.0,  3.66, 
 05/06/13, 13:00,  21.1,  51,  19.1,  15.9,  14.8,   0.0,  3.63, 
 05/06/13, 14:00,  19.7,  64,  19.6,  16.2,  14.8,   0.0,  3.49, 
 05/06/13, 15:00,  20.7,  60,  19.6,  16.4,  14.8,   0.0,  3.03, 
 05/06/13, 16:00,  18.8,  67,  19.6,  16.6,  14.7,   0.0,  2.42, 
 05/06/13, 17:00,  17.8,  73,  19.7,  16.8,  14.7,   0.5,  1.66, 
 05/06/13, 18:00,  16.4,  81,  19.6,  16.9,  14.7,   0.0,  0.86, 
 05/06/13, 19:00,  14.3,  91,  19.4,  17.0,  14.7,   0.0,  0.24, 
 05/06/13, 20:00,  12.4,  99,  18.9,  17.1,  14.7,   0.0,  0.00, 
 05/06/13, 21:00,  11.7,  99,  18.6,  17.2,  14.7,   0.0,  0.00, 
 05/06/13, 22:00,  12.3,  99,  18.2,  17.2,  14.7,   0.0,  0.00, 
 05/06/13, 23:00,  12.1,  99,  17.7,  17.2,  14.8,   0.0,  0.00, 
 05/06/14, 00:00,  12.1,  99,  17.5,  17.1,  14.7,   0.0,  0.00, 
 05/06/14, 01:00,  11.3,  99,  17.2,  17.1,  14.8,   0.0,  0.00, 
 05/06/14, 02:00,  10.7,  99,  16.8,  17.0,  14.9,   0.0,  0.00, 
 05/06/14, 03:00,  10.4,  99,  16.6,  16.9,  14.9,   0.0,  0.00, 
 05/06/14, 04:00,  10.4,  99,  16.3,  16.8,  14.9,   0.0,  0.00, 
 05/06/14, 05:00,  10.9,  99,  16.1,  16.7,  14.8,   0.0,  0.00, 
 05/06/14, 06:00,  13.8,  74,  15.7,  16.6,  14.8,   0.0,  0.23, 
 05/06/14, 07:00,  14.2,  88,  15.6,  16.4,  14.9,   0.0,  1.09, 
 05/06/14, 08:00,  16.4,  85,  15.7,  16.3,  15.0,   0.0,  1.85, 
 05/06/14, 09:00,  17.5,  83,  16.2,  16.2,  15.0,   0.0,  2.48, 
 05/06/14, 10:00,  19.7,  70,  16.8,  16.2,  15.0,   0.0,  3.07, 
 05/06/14, 11:00,  21.4,  57,  17.7,  16.1,  15.0,   0.0,  3.42, 
 05/06/14, 12:00,  22.9,  60,  18.7,  16.2,  15.0,   0.0,  3.60, 
 05/06/14, 13:00,  22.8,  62,  19.9,  16.4,  14.9,   0.0,  2.98, 
 05/06/14, 14:00,  23.2,  64,  20.4,  16.6,  15.0,   0.0,  2.64, 
 05/06/14, 15:00,  21.5,  72,  20.6,  16.8,  14.9,   0.0,  1.18, 
 05/06/14, 16:00,  19.2,  81,  20.5,  17.1,  14.9,   0.0,  0.84, 
 05/06/14, 17:00,  18.7,  84,  20.4,  17.3,  15.0,   0.0,  0.41, 
 05/06/14, 18:00,  17.7,  87,  20.2,  17.4,  14.9,   0.0,  0.30, 
 05/06/14, 19:00,  16.8,  93,  19.9,  17.6,  14.9,   0.0,  0.08, 
 05/06/14, 20:00,  16.3,  96,  19.7,  17.7,  15.0,   0.0,  0.00, 
 05/06/14, 21:00,  15.1,  99,  19.4,  17.7,  15.0,   0.0,  0.00, 
 05/06/14, 22:00,  14.5,  99,  18.9,  17.7,  14.9,   0.0,  0.00, 
 05/06/14, 23:00,  14.9,  99,  18.7,  17.7,  15.0,   0.0,  0.00, 
 05/06/15, 00:00,  14.7,  99,  18.4,  17.7,  15.0,   0.0,  0.00, 
 05/06/15, 01:00,  14.7,  99,  18.2,  17.6,  15.0,   0.0,  0.00, 
 05/06/15, 02:00,  14.3,  99,  18.0,  17.6,  15.0,   0.0,  0.00, 
 05/06/15, 03:00,  14.4,  99,  17.7,  17.5,  15.2,   0.0,  0.00, 
 05/06/15, 04:00,  14.4,  99,  17.6,  17.4,  15.1,   0.0,  0.00, 
 05/06/15, 05:00,  13.9,  99,  17.4,  17.3,  15.2,   0.0,  0.00, 
 05/06/15, 06:00,  14.3,  91,  17.3,  17.3,  15.2,   0.0,  0.00, 
 05/06/15, 07:00,  13.2,  99,  17.0,  17.2,  15.2,   0.0,  0.10, 
 05/06/15, 08:00,  12.7,  99,  16.9,  17.1,  15.2,   0.0,  0.18, 
 05/06/15, 09:00,  13.2,  99,  16.8,  17.0,  15.3,   0.0,  0.44, 
 05/06/15, 10:00,  13.5,  99,  16.8,  17.0,  15.3,   0.0,  0.75, 
 05/06/15, 11:00,  15.4,  99,  17.0,  16.9,  15.3,   0.0,  1.85, 
 05/06/15, 12:00,  17.6,  90,  17.4,  16.8,  15.3,   0.0,  2.71, 
 05/06/15, 13:00,  17.5,  81,  18.0,  16.8,  15.3,   0.5,  2.43, 
 05/06/15, 14:00,  18.7,  76,  18.6,  16.8,  15.4,   0.0,  2.25, 
 05/06/15, 15:00,  20.4,  74,  18.8,  16.9,  15.1,   0.0,  2.76, 
 05/06/15, 16:00,  20.6,  70,  19.0,  17.0,  15.2,   0.0,  2.37, 
 05/06/15, 17:00,  18.9,  74,  19.4,  17.1,  15.3,   0.0,  1.13, 
 05/06/15, 18:00,  18.5,  82,  19.5,  17.2,  15.2,   0.0,  0.27, 
 05/06/15, 19:00,  17.2,  90,  19.4,  17.3,  15.4,   0.0,  0.06, 
 05/06/15, 20:00,  16.3,  87,  19.2,  17.4,  15.3,   0.0,  0.00, 
 05/06/15, 21:00,  15.9,  87,  18.9,  17.4,  15.2,   0.0,  0.00, 
 05/06/15, 22:00,  15.2,  99,  18.7,  17.5,  15.4,   0.0,  0.00, 
 05/06/15, 23:00,  14.4,  99,  18.5,  17.5,  15.3,   0.0,  0.00, 
 05/06/16, 00:00,  13.9,  99,  18.3,  17.5,  15.3,   1.5,  0.00, 
 05/06/16, 01:00,  14.2,  99,  17.9,  17.4,  15.3,   1.5,  0.00, 